Regional Weather Roundup
Issued by NWS

Home | Current Version | Previous Version | Text Only | Print | Product List | Glossary On
Versions: 1 2 3 4 5 6 7 8 9 10 11 12 13 14 15 16 17 18 19 20 21 22 23 24 25 26 27 28 29 30 31 32 33 34 35 36 37 38 39 40 41 42 43 44 45 46 47 48 49 50
000
ASUS44 KMEG 190710
RWRTN
TENNESSEE HOURLY STATE WEATHER ROUNDUP
NATIONAL WEATHER SERVICE MEMPHIS TN
200 AM CDT SAT AUG 19 2017

TNZ002-004-019-021-049-052-054-088>092-190800-
WEST TENNESSEE

CITY           SKY/WX    TMP DP  RH WIND       PRES   REMARKS
MEMPHIS INTL   CLOUDY    79  71  76 CALM      29.98R
NWS MEMPHIS      N/A     74 N/A N/A MISG        N/A
JACKSON        PTCLDY    69  68  96 CALM      29.98F
DYERSBURG        N/A     71  70  96 CALM      29.97F
SOMERVILLE     CLEAR     70  70 100 CALM      29.97F
COVINGTON      CLEAR     72  70  94 CALM      29.97S
UNION CITY     CLEAR     68  66  94 CALM      29.96S
BOLIVAR        CLEAR     68  68 100 CALM      29.98S
PARIS          CLEAR     68  68 100 CALM      29.97S
HUNTINGDON     MOCLDY    70  68  94 CALM      29.97S
LEXINGTON      CLEAR     66  66 100 CALM      29.98S FOG
SAVANNAH       CLEAR     66  66 100 CALM      29.99R
$$

TNZ008-025-027-028-033-062-065-066-190800-
NORTH MIDDLE TENNESSEE

CITY           SKY/WX    TMP DP  RH WIND       PRES   REMARKS
NASHVILLE      PTCLDY    70  67  90 CALM      29.99S
PORTLAND       CLEAR     70  66  88 S5        29.98S
CLARKSVILLE    CLOUDY    72  67  84 SW3       29.97F
SMYRNA         CLEAR     67  66  97 CALM      30.00R
COOKEVILLE     FOG       63  63 100 CALM      29.99F VSB 1/2
GALLATIN       CLEAR     68  66  94 CALM      30.01R
CROSSVILLE     CLEAR     62  61  96 CALM      30.05S
$$

TNZ061-075-076-078-094-096-097-190800-
SOUTH MIDDLE TENNESSEE

CITY           SKY/WX    TMP DP  RH WIND       PRES   REMARKS
FAYETTEVILLE   CLEAR     68  66  94 CALM      30.00S
TULLAHOMA      CLEAR     64  63  94 CALM      30.03R
WINCHESTER     CLEAR     64  64 100 CALM      30.01S
MCMINNVILLE    CLOUDY    66  66 100 CALM      30.01S VSB 1/4
COLUMBIA       CLEAR     68  68 100 CALM      29.99R
SHELBYVILLE    CLEAR     66  66 100 E3        30.00R FOG
$$

TNZ017-018-042-046-047-190800-
NORTHEAST TENNESSEE

CITY           SKY/WX    TMP DP  RH WIND       PRES   REMARKS
TRI CITIES     PTCLDY    65  64  97 N3        30.03S
ELIZABETHTON   PTCLDY    66  66 100 CALM      30.03S
$$

TNZ012-013-036-069-073-074-190800-
CENTRAL EAST TENNESSEE

CITY           SKY/WX    TMP DP  RH WIND       PRES   REMARKS
KNOXVILLE      CLEAR     69  65  86 CALM      29.99F
OAK RIDGE      CLEAR     67  65  93 CALM      30.01S
DOWNTOWN KNOXV CLEAR     68  66  94 CALM      29.99F FOG
GATLINBURG     PTCLDY    66  64  94 CALM      30.00S
MORRISTOWN     CLEAR     68  66  94 CALM      30.01S
JACKSBORO      CLEAR     64  64 100 CALM      30.04S FOG
$$

TNZ083-085-099-190800-
SOUTHEAST TENNESSEE

CITY           SKY/WX    TMP DP  RH WIND       PRES   REMARKS
CHATTANOOGA    CLEAR     72  68  87 CALM      30.00S
DAYTON         PTSUNNY   66  66 100 CALM      29.99S
$$

SKY/WX REPORTED AS FAIR MEANS FEW OR NO CLOUDS BELOW
12 THOUSAND FEET.





USA.gov is the U.S. government's official web portal to all federal, state and local government web resources and services.